FW8057 Weather Reports


time (UTC)temp
C
wind
direction
speed
KPH
gust
KPH
rain 1hr
cm
rain 24hr
cm
rain mn
cm
humidity
%
barometer
mb
20260901081420 25 214 0.0 0.0 0.00 0.00 0.00 93 1017.8
20260901080915 25 216 0.0 0.0 0.00 0.00 0.00 93 1017.8
20260901080409 25 216 0.0 1.6 0.00 0.00 0.00 93 1017.8
20260901075904 25 210 0.0 0.0 0.00 0.00 0.00 93 1017.7
20260901075359 25 202 0.0 0.0 0.00 0.00 0.00 93 1017.6
20260901074853 25 202 0.0 0.0 0.00 0.00 0.00 92 1017.4
20260901074348 25 202 0.0 0.0 0.00 0.00 0.00 92 1017.7
20260901073843 25 202 0.0 0.0 0.00 0.00 0.00 92 1017.6
20260901073339 25 202 0.0 0.0 0.00 0.00 0.00 92 1017.7
20260901072835 25 196 0.0 0.0 0.00 0.00 0.00 92 1017.7
20260901072335 25 211 0.0 0.0 0.00 0.00 0.00 92 1017.6
20260901071830 25 214 0.0 0.0 0.00 0.00 0.00 92 1018.0
20260901071328 25 214 0.0 1.6 0.00 0.00 0.00 91 1017.9
20260901070827 25 216 0.0 0.0 0.00 0.00 0.00 91 1017.8
20260901070324 25 216 0.0 0.0 0.00 0.00 0.00 91 1017.8
20260901065822 25 215 0.0 0.0 0.00 0.00 0.00 91 1017.8
20260901065317 25 213 1.6 1.6 0.00 0.00 0.00 91 1018.0
20260901064813 25 211 0.0 0.0 0.00 0.00 0.00 91 1017.9
20260901064309 25 206 0.0 0.0 0.00 0.00 0.00 91 1018.0
20260901063807 25 206 0.0 0.0 0.00 0.00 0.00 91 1018.0
20260901063303 25 205 0.0 0.0 0.00 0.00 0.00 91 1018.0
20260901062758 25 207 0.0 0.0 0.00 0.00 0.00 91 1018.0
20260901062254 25 204 0.0 1.6 0.00 0.00 0.00 91 1018.1
20260901061749 25 206 0.0 0.0 0.00 0.00 0.00 91 1018.1
20260901061249 25 205 0.0 0.0 0.00 0.00 0.00 91 1017.9
20260901060744 25 205 0.0 0.0 0.00 0.00 0.00 91 1018.2
20260901060240 25 203 0.0 0.0 0.00 0.00 0.00 91 1018.1
20260901055735 25 184 0.0 0.0 0.00 0.00 0.00 91 1018.2
20260901055232 25 196 0.0 0.0 0.00 0.00 0.00 91 1018.1
20260901054728 25 196 0.0 0.0 0.00 0.00 0.00 91 1018.0
20260901054225 25 167 0.0 0.0 0.00 0.00 0.00 91 1018.0
20260901053720 25 178 0.0 0.0 0.00 0.00 0.00 91 1018.3
20260901053215 25 184 0.0 0.0 0.00 0.00 0.00 90 1018.3
20260901052711 25 183 0.0 0.0 0.00 0.00 0.00 90 1018.1
20260901052207 25 173 0.0 0.0 0.00 0.00 0.00 90 1018.6
20260901051705 25 180 0.0 0.0 0.00 0.00 0.00 89 1018.4
20260901051205 25 179 0.0 0.0 0.00 0.00 0.00 89 1018.2
20260901050700 25 190 0.0 1.6 0.00 0.00 0.00 88 1018.4
20260901050155 25 185 0.0 0.0 0.00 0.00 0.00 87 1018.2
20260901045650 25 174 1.6 1.6 0.00 0.00 0.00 87 1018.0
20260901045145 25 175 0.0 0.0 0.00 0.00 0.00 87 1018.3
20260901044640 25 174 0.0 0.0 0.00 0.00 0.00 86 1018.2
20260901044137 25 175 0.0 0.0 0.00 0.00 0.00 85 1018.1
20260901043632 25 175 0.0 0.0 0.00 0.00 0.00 84 1018.2
20260901043128 25 175 0.0 0.0 0.00 0.00 0.00 84 1018.2
20260901042626 25 175 0.0 1.6 0.00 0.00 0.00 84 1017.9
20260901042122 25 174 1.6 1.6 0.00 0.00 0.00 83 1018.0
20260901041618 25 175 0.0 0.0 0.00 0.00 0.00 83 1018.2
20260901041113 25 175 0.0 0.0 0.00 0.00 0.00 83 1017.9
20260901040612 25 177 0.0 1.6 0.00 0.00 0.00 83 1018.0
20260901040106 25 178 0.0 0.0 0.00 0.00 0.00 83 1017.9
20260901035604 25 183 0.0 0.0 0.00 0.00 0.00 84 1017.9
20260901035103 25 176 0.0 0.0 0.00 0.00 0.00 85 1018.1
20260901034603 25 176 0.0 0.0 0.00 0.00 0.00 86 1017.8
20260901034058 25 176 0.0 0.0 0.00 0.00 0.00 85 1017.7
20260901033556 25 176 0.0 0.0 0.00 0.00 0.00 84 1017.9
20260901033051 25 176 0.0 0.0 0.00 0.00 0.00 84 1017.6
20260901032550 25 176 0.0 0.0 0.00 0.00 0.00 84 1017.8
20260901032045 25 175 0.0 0.0 0.00 0.00 0.00 84 1017.8
20260901031540 25 184 0.0 0.0 0.00 0.00 0.00 85 1017.8
20260901031037 25 188 0.0 0.0 0.00 0.00 0.00 85 1017.8
20260901030536 25 188 0.0 0.0 0.00 0.00 0.00 84 1017.8
20260901030031 25 188 0.0 0.0 0.00 0.00 0.00 84 1017.8
20260901025530 25 188 0.0 0.0 0.00 0.00 0.00 84 1018.0
20260901025025 25 188 0.0 0.0 0.00 0.00 0.00 84 1017.9
20260901024520 25 188 0.0 0.0 0.00 0.00 0.00 83 1018.2
20260901024019 25 188 0.0 0.0 0.00 0.00 0.00 83 1017.9
20260901023513 25 188 0.0 0.0 0.00 0.00 0.00 83 1018.1
20260901023008 25 188 0.0 0.0 0.00 0.00 0.00 83 1017.7
20260901022503 25 187 0.0 0.0 0.00 0.00 0.00 83 1017.9
20260901021958 25 189 0.0 0.0 0.00 0.00 0.00 83 1017.9
20260901021454 25 189 0.0 0.0 0.00 0.00 0.00 83 1017.8
20260901020949 25 188 0.0 0.0 0.00 0.00 0.00 83 1017.7
20260901020444 25 189 0.0 0.0 0.00 0.00 0.00 83 1017.7
20260901015943 25 189 0.0 0.0 0.00 0.00 0.00 83 1018.2
20260901015440 25 189 0.0 0.0 0.00 0.00 0.00 84 1017.7
20260901014939 25 189 0.0 0.0 0.00 0.00 0.00 84 1017.9
20260901014435 25 189 0.0 0.0 0.00 0.00 0.00 83 1017.9
20260901013930 25 189 0.0 0.0 0.00 0.00 0.00 84 1017.7
20260901013426 25 189 0.0 0.0 0.00 0.00 0.00 83 1017.8
20260901012922 25 189 0.0 0.0 0.00 0.00 0.00 84 1017.5
20260901012416 25 189 0.0 0.0 0.00 0.00 0.00 83 1017.6
20260901011912 25 189 0.0 0.0 0.00 0.00 0.00 83 1017.3
20260901011408 25 189 0.0 0.0 0.00 0.00 0.00 83 1017.4
20260901010906 25 189 0.0 0.0 0.00 0.00 0.00 82 1017.4
20260901010401 25 189 0.0 0.0 0.00 0.00 0.00 82 1017.2
20260901005900 25 189 0.0 0.0 0.00 0.00 0.00 82 1017.3
20260901005355 25 189 0.0 0.0 0.00 0.00 0.00 81 1017.0
20260901004850 26 189 0.0 0.0 0.00 0.00 0.00 81 1017.4
20260901004349 26 189 0.0 0.0 0.00 0.00 0.00 80 1017.1
20260901003844 26 189 0.0 0.0 0.00 0.00 0.00 79 1017.3
20260901003339 26 189 0.0 0.0 0.00 0.00 0.00 78 1017.2
20260901002838 26 189 0.0 0.0 0.00 0.00 0.00 78 1017.1
20260901002337 26 189 0.0 0.0 0.00 0.00 0.00 77 1017.1
20260901001832 26 189 0.0 0.0 0.00 0.00 0.00 77 1016.9
20260901001327 26 189 0.0 0.0 0.00 0.00 0.00 76 1016.9
20260901000823 26 189 0.0 0.0 0.00 0.00 0.00 76 1016.9
20260901000318 27 189 0.0 0.0 0.00 0.00 0.00 75 1017.0
20260831235816 27 189 0.0 0.0 0.00 0.00 0.00 75 1017.1
20260831235312 27 189 0.0 0.0 0.00 0.00 0.00 74 1016.8
20260831234808 27 189 0.0 0.0 0.00 0.00 0.00 74 1017.0
20260831234307 28 188 0.0 0.0 0.00 0.00 0.00 73 1016.9
20260831233803 28 188 0.0 0.0 0.00 0.00 0.00 71 1017.0
20260831233258 28 188 0.0 0.0 0.00 0.00 0.00 71 1016.7
20260831232752 28 188 0.0 0.0 0.00 0.00 0.00 70 1016.9
20260831232249 29 188 0.0 0.0 0.00 0.00 0.00 67 1016.8
20260831231744 30 188 0.0 0.0 0.00 0.00 0.00 64 1016.9
20260831231241 30 188 0.0 1.6 0.00 0.00 0.00 64 1016.7
20260831230736 30 188 0.0 0.0 0.00 0.00 0.00 62 1016.6
20260831230231 31 188 0.0 0.0 0.00 0.00 0.00 59 1016.7
20260831225730 31 189 0.0 0.0 0.00 0.00 0.00 58 1016.7
20260831225226 31 205 0.0 0.0 0.00 0.00 0.00 55 1016.9
20260831224720 31 205 0.0 0.0 0.00 0.00 0.00 55 1016.8
20260831224216 31 264 1.6 1.6 0.00 0.00 0.00 53 1016.8
20260831223711 32 202 0.0 1.6 0.00 0.00 0.00 54 1016.9
20260831223208 31 342 1.6 1.6 0.00 0.00 0.00 53 1016.6
20260831222703 31 209 0.0 0.0 0.00 0.00 0.00 57 1016.6
20260831222159 32 209 0.0 0.0 0.00 0.00 0.00 57 1016.8
20260831221654 32 209 0.0 0.0 0.00 0.00 0.00 55 1016.6
20260831221149 32 208 0.0 0.0 0.00 0.00 0.00 55 1016.5
20260831220644 32 177 0.0 0.0 0.00 0.00 0.00 57 1016.8
20260831220139 31 177 0.0 0.0 0.00 0.00 0.00 56 1016.8
20260831215634 31 177 1.6 1.6 0.00 0.00 0.00 56 1016.7
20260831215130 32 178 0.0 0.0 0.00 0.00 0.00 58 1017.0
20260831214627 32 203 0.0 0.0 0.00 0.00 0.00 54 1016.9
20260831214123 32 6 1.6 3.2 0.00 0.00 0.00 54 1016.8
20260831213620 32 189 0.0 1.6 0.00 0.00 0.00 56 1016.9
20260831213115 32 201 0.0 0.0 0.00 0.00 0.00 57 1017.0
20260831212611 32 178 0.0 1.6 0.00 0.00 0.00 55 1017.2
20260831212107 32 183 0.0 1.6 0.00 0.00 0.00 54 1017.1
20260831211607 32 98 1.6 1.6 0.00 0.00 0.00 54 1017.2
20260831211106 32 210 1.6 1.6 0.00 0.00 0.00 56 1017.0
20260831210601 32 184 0.0 0.0 0.00 0.00 0.00 55 1016.8
20260831210057 32 177 1.6 1.6 0.00 0.00 0.00 54 1017.1
20260831205556 32 194 0.0 1.6 0.00 0.00 0.00 54 1017.2
20260831205053 32 179 0.0 0.0 0.00 0.00 0.00 55 1017.1
20260831204547 32 190 1.6 1.6 0.00 0.00 0.00 56 1017.4
20260831204045 32 172 0.0 1.6 0.00 0.00 0.00 55 1017.4
20260831203540 32 76 1.6 3.2 0.00 0.00 0.00 58 1017.3
20260831203039 32 180 0.0 1.6 0.00 0.00 0.00 55 1017.3
20260831202533 32 175 1.6 1.6 0.00 0.00 0.00 55 1017.1
20260831202033 33 180 1.6 1.6 0.00 0.00 0.00 56 1017.2
20260831201532 32 181 1.6 1.6 0.00 0.00 0.00 57 1017.2
20260831201027 32 142 1.6 1.6 0.00 0.00 0.00 55 1017.4
20260831200523 33 160 1.6 3.2 0.00 0.00 0.00 54 1017.4
20260831200018 33 200 0.0 1.6 0.00 0.00 0.00 53 1017.2
20260831195514 33 203 0.0 0.0 0.00 0.00 0.00 53 1017.4
20260831195013 33 205 0.0 0.0 0.00 0.00 0.00 54 1017.6
20260831194509 33 195 0.0 0.0 0.00 0.00 0.00 55 1017.4
20260831194008 33 174 0.0 1.6 0.00 0.00 0.00 53 1017.6
20260831193504 33 189 0.0 0.0 0.00 0.00 0.00 51 1017.6
20260831192958 34 221 1.6 1.6 0.00 0.00 0.00 52 1017.5
20260831192453 33 152 1.6 1.6 0.00 0.00 0.00 52 1017.7
20260831191948 34 225 1.6 3.2 0.00 0.00 0.00 51 1017.8
20260831191445 34 211 0.0 1.6 0.00 0.00 0.00 49 1017.9
20260831190941 35 197 0.0 0.0 0.00 0.00 0.00 49 1018.0
20260831190435 33 212 0.0 1.6 0.00 0.00 0.00 49 1017.9
20260831185934 33 226 1.6 1.6 0.00 0.00 0.00 50 1017.8
20260831185431 33 243 3.2 4.8 0.00 0.00 0.00 51 1018.4
20260831184930 33 205 3.2 3.2 0.00 0.00 0.00 53 1018.2
20260831184425 33 211 1.6 1.6 0.00 0.00 0.00 53 1018.2
20260831183921 33 211 3.2 3.2 0.00 0.00 0.00 53 1018.2
20260831183420 33 229 1.6 1.6 0.00 0.00 0.00 52 1018.5
20260831182919 32 205 1.6 1.6 0.00 0.00 0.00 56 1018.3
20260831182415 33 73 4.8 4.8 0.00 0.00 0.00 52 1018.3
20260831181910 33 243 1.6 3.2 0.00 0.00 0.00 53 1018.6
20260831181405 33 215 0.0 1.6 0.00 0.00 0.00 54 1018.4
20260831180900 33 210 0.0 0.0 0.00 0.00 0.00 54 1018.5
20260831180354 33 346 6.4 8.0 0.00 0.00 0.00 54 1018.6
20260831175853 32 211 1.6 1.6 0.00 0.00 0.00 55 1018.6
20260831175349 32 186 0.0 1.6 0.00 0.00 0.00 55 1018.7
20260831174846 32 139 1.6 1.6 0.00 0.00 0.00 54 1018.5
20260831174341 32 216 1.6 1.6 0.00 0.00 0.00 58 1018.6
20260831173840 32 308 4.8 8.0 0.00 0.00 0.00 57 1018.7
20260831173334 32 208 0.0 1.6 0.00 0.00 0.00 58 1018.6
20260831172829 32 200 0.0 0.0 0.00 0.00 0.00 62 1018.8
20260831172325 32 328 3.2 3.2 0.00 0.00 0.00 60 1018.6
20260831171825 32 212 0.0 0.0 0.00 0.00 0.00 61 1018.7
20260831171321 32 214 1.6 1.6 0.00 0.00 0.00 62 1018.8
20260831170818 31 228 1.6 1.6 0.00 0.00 0.00 61 1018.9
20260831170314 31 253 3.2 3.2 0.00 0.00 0.00 61 1018.8
20260831165810 31 196 0.0 1.6 0.00 0.00 0.00 63 1018.8
20260831165306 31 267 1.6 3.2 0.00 0.00 0.00 62 1018.7
20260831164802 31 199 1.6 1.6 0.00 0.00 0.00 62 1018.8
20260831164258 31 225 1.6 1.6 0.00 0.00 0.00 64 1019.1
20260831163753 31 241 1.6 1.6 0.00 0.00 0.00 66 1019.2
20260831163249 31 195 1.6 1.6 0.00 0.00 0.00 64 1019.1
20260831162747 31 210 1.6 1.6 0.00 0.00 0.00 65 1018.9
20260831162242 31 213 1.6 1.6 0.00 0.00 0.00 66 1019.2
20260831161736 31 203 0.0 1.6 0.00 0.00 0.00 68 1019.3
20260831161233 30 162 1.6 3.2 0.00 0.00 0.00 67 1019.2
20260831160732 30 335 8.0 9.7 0.00 0.00 0.00 67 1019.3
20260831160227 30 344 1.6 3.2 0.00 0.00 0.00 67 1019.4
20260831155727 30 110 0.0 1.6 0.00 0.00 0.00 69 1019.3
20260831155222 31 120 1.6 1.6 0.00 0.00 0.00 67 1019.4
20260831154718 30 153 1.6 3.2 0.00 0.00 0.00 68 1019.3
20260831154214 30 151 1.6 1.6 0.00 0.00 0.00 71 1019.7
20260831153713 30 228 1.6 3.2 0.00 0.00 0.00 71 1019.6
20260831153209 30 353 1.6 3.2 0.00 0.00 0.00 71 1019.7
20260831152705 30 339 6.4 8.0 0.00 0.00 0.00 73 1019.7
20260831152201 30 25 3.2 3.2 0.00 0.00 0.00 74 1019.8
20260831151700 29 195 0.0 1.6 0.00 0.00 0.00 76 1019.9
20260831151155 30 240 1.6 3.2 0.00 0.00 0.00 74 1019.6
20260831150650 29 185 0.0 0.0 0.00 0.00 0.00 76 1019.6
20260831150145 29 261 4.8 4.8 0.00 0.00 0.00 74 1019.7
20260831145644 28 147 0.0 1.6 0.00 0.00 0.00 75 1019.7
20260831145141 28 200 3.2 3.2 0.00 0.00 0.00 76 1019.6
20260831144636 28 214 1.6 1.6 0.00 0.00 0.00 76 1019.8
20260831144132 28 331 4.8 4.8 0.00 0.00 0.00 75 1019.6
20260831143631 28 214 1.6 1.6 0.00 0.00 0.00 78 1019.7
20260831143127 28 288 4.8 4.8 0.00 0.00 0.00 77 1019.7
20260831142624 28 211 1.6 1.6 0.00 0.00 0.00 77 1019.6
20260831142119 27 305 3.2 3.2 0.00 0.00 0.00 77 1019.6
20260831141617 27 228 3.2 3.2 0.00 0.00 0.00 79 1019.5
20260831141113 27 233 4.8 8.0 0.00 0.00 0.00 80 1019.5
20260831140612 27 200 1.6 1.6 0.00 0.00 0.00 81 1019.5
20260831140107 27 328 1.6 3.2 0.00 0.00 0.00 81 1019.3
20260831135605 27 348 3.2 4.8 0.00 0.00 0.00 82 1019.3
20260831135101 27 338 4.8 4.8 0.00 0.00 0.00 83 1019.4
20260831134556 26 323 4.8 4.8 0.00 0.00 0.00 84 1019.2
20260831134051 26 211 1.6 3.2 0.00 0.00 0.00 85 1019.2
20260831133550 26 247 1.6 1.6 0.00 0.00 0.00 87 1019.4
20260831133045 26 358 6.4 8.0 0.00 0.00 0.00 86 1019.2
20260831132542 26 267 4.8 4.8 0.00 0.00 0.00 87 1019.5
20260831132040 26 209 1.6 3.2 0.00 0.00 0.00 88 1019.3
20260831131535 26 248 3.2 3.2 0.00 0.00 0.00 89 1019.1
20260831131031 25 220 1.6 3.2 0.00 0.00 0.00 90 1019.4
20260831130532 25 220 1.6 1.6 0.00 0.00 0.00 92 1019.3
20260831130027 25 196 1.6 1.6 0.00 0.00 0.00 94 1019.4
20260831125520 24 337 4.8 4.8 0.00 0.00 0.00 95 1019.4
20260831125016 24 202 0.0 1.6 0.00 0.00 0.00 95 1019.4
20260831124513 23 207 1.6 1.6 0.00 0.00 0.00 95 1019.4
20260831124008 23 193 0.0 0.0 0.00 0.00 0.00 95 1019.3
20260831123507 23 155 1.6 3.2 0.00 0.00 0.00 95 1019.5
20260831123002 23 197 0.0 0.0 0.00 0.00 0.00 95 1019.4
20260831122457 23 247 1.6 3.2 0.00 0.00 0.00 95 1019.5
20260831121952 23 200 0.0 0.0 0.00 0.00 0.00 95 1019.4
20260831121447 22 197 0.0 0.0 0.00 0.00 0.00 95 1019.2
20260831120943 22 221 1.6 1.6 0.00 0.00 0.00 95 1019.1
20260831120442 22 223 3.2 3.2 0.00 0.00 0.00 95 1019.2
20260831115937 22 200 0.0 0.0 0.00 0.00 0.00 95 1019.3
20260831115433 22 286 3.2 3.2 0.00 0.00 0.00 95 1019.2
20260831114933 21 152 0.0 0.0 0.00 0.00 0.00 95 1019.2
20260831114432 21 152 0.0 0.0 0.00 0.00 0.00 95 1019.2
20260831113928 21 152 0.0 0.0 0.00 0.00 0.00 95 1019.1
20260831113427 21 152 0.0 0.0 0.00 0.00 0.00 95 1019.3
20260831112923 21 152 0.0 0.0 0.00 0.00 0.00 95 1019.1
20260831112423 20 152 0.0 0.0 0.00 0.00 0.00 95 1019.2
20260831111918 20 152 0.0 0.0 0.00 0.00 0.00 95 1019.2
20260831111414 20 152 0.0 0.0 0.00 0.00 0.00 95 1019.3
20260831110909 20 152 0.0 0.0 0.00 0.00 0.00 95 1019.3
20260831110404 20 152 0.0 0.0 0.00 0.00 0.00 95 1019.3
20260831105902 20 152 0.0 0.0 0.00 0.00 0.00 95 1019.0
20260831105358 20 152 0.0 0.0 0.00 0.00 0.00 95 1019.2
20260831104853 20 152 0.0 0.0 0.00 0.00 0.00 95 1019.1
20260831104349 20 152 0.0 0.0 0.00 0.00 0.00 95 1019.2
20260831103844 20 152 0.0 0.0 0.00 0.00 0.00 95 1019.1
20260831103340 20 152 0.0 0.0 0.00 0.00 0.00 95 1018.9
20260831102835 20 152 0.0 0.0 0.00 0.00 0.00 95 1019.1
20260831102329 20 152 0.0 0.0 0.00 0.00 0.00 95 1019.0
20260831101825 20 152 0.0 0.0 0.00 0.00 0.00 95 1018.9
20260831101320 20 152 0.0 0.0 0.00 0.00 0.00 95 1018.9
20260831100816 20 152 0.0 0.0 0.00 0.00 0.00 95 1018.8
20260831100312 20 152 0.0 0.0 0.00 0.00 0.00 95 1019.0
20260831095811 20 152 0.0 0.0 0.00 0.00 0.00 95 1018.9
20260831095306 20 152 0.0 0.0 0.00 0.00 0.00 95 1018.8
20260831094801 20 152 0.0 0.0 0.00 0.00 0.00 95 1018.8
20260831094256 20 152 0.0 0.0 0.00 0.00 0.00 95 1018.7
20260831093752 20 152 0.0 0.0 0.00 0.00 0.00 95 1018.7
20260831093252 20 152 0.0 0.0 0.00 0.00 0.00 95 1018.8
20260831092749 20 152 0.0 0.0 0.00 0.00 0.00 95 1018.8
20260831092244 20 152 0.0 0.0 0.00 0.00 0.00 95 1018.8
20260831091744 20 152 0.0 0.0 0.00 0.00 0.00 95 1018.8
20260831091240 20 152 0.0 0.0 0.00 0.00 0.00 95 1019.0
20260831090735 20 152 0.0 0.0 0.00 0.00 0.00 95 1018.7
20260831090231 20 152 0.0 0.0 0.00 0.00 0.00 95 1018.7
20260831085727 20 152 0.0 0.0 0.00 0.00 0.00 95 1018.5
20260831085221 20 152 0.0 0.0 0.00 0.00 0.00 95 1018.7
20260831084717 20 152 0.0 0.0 0.00 0.00 0.00 95 1018.7
20260831084213 20 152 0.0 0.0 0.00 0.00 0.00 95 1018.7
20260831083709 20 152 0.0 0.0 0.00 0.00 0.00 95 1018.8
20260831083204 20 152 0.0 0.0 0.00 0.00 0.00 95 1018.7
20260831082702 20 152 0.0 0.0 0.00 0.00 0.00 95 1018.7
20260831082158 20 152 0.0 0.0 0.00 0.00 0.00 95 1018.7
20260831081653 20 152 0.0 0.0 0.00 0.00 0.00 95 1018.9